BAW1QD LPPT-EGLL

Flight info

Callsign BAW1QD
Flight time N/A
Altitude 34000
Route IXIDA DCT RIVRO DCT TOSDI DCT ZMR DCT NUBLO DCT RONSI DCT DELOG DCT DEGEX DCT OZNOH DCT JSY DCT REVTU UP87 ROXOG
Aircraft A321/M-SDE3FGHIRWY/LB1

Departure

Time N/A
Airport Lisbon Humberto Delgado Airport (LPPT)

Arrival

Time 2026-05-06 18:22
Airport London Heathrow Airport (EGLL)
Time Latitude Longitude Altitude Speed Heading
2026-05-06 17:42 48.28717 -2.67909 34004 ft 443 kts 29°
2026-05-06 17:42 48.31365 -2.65550 34002 ft 443 kts 30°
2026-05-06 17:42 48.36666 -2.60815 34004 ft 443 kts 29°
2026-05-06 17:43 48.41962 -2.56087 34003 ft 442 kts 30°
2026-05-06 17:43 48.47344 -2.51640 34003 ft 441 kts 21°
2026-05-06 17:44 48.53022 -2.48119 34005 ft 441 kts 21°
2026-05-06 17:44 48.58667 -2.44628 34005 ft 441 kts 21°
2026-05-06 17:45 48.64342 -2.41102 34003 ft 441 kts 21°
2026-05-06 17:45 48.70012 -2.37557 34000 ft 441 kts 21°
2026-05-06 17:46 48.75690 -2.34010 33999 ft 441 kts 21°
2026-05-06 17:46 48.81359 -2.30448 33999 ft 441 kts 21°
2026-05-06 17:47 48.87034 -2.26864 33999 ft 442 kts 21°
2026-05-06 17:47 48.92712 -2.23288 33999 ft 442 kts 21°
2026-05-06 17:48 48.98391 -2.19707 34004 ft 442 kts 21°
2026-05-06 17:48 49.04078 -2.16116 34006 ft 442 kts 21°
2026-05-06 17:49 49.09768 -2.12506 34007 ft 442 kts 21°
2026-05-06 17:49 49.15414 -2.08902 34004 ft 442 kts 21°
2026-05-06 17:50 49.21090 -2.05258 34005 ft 443 kts 22°
2026-05-06 17:50 49.26551 -2.00863 34003 ft 444 kts 27°
2026-05-06 17:51 49.31969 -1.96277 34005 ft 444 kts 27°
2026-05-06 17:51 49.37383 -1.91679 34011 ft 445 kts 27°
2026-05-06 17:52 49.42803 -1.87061 34007 ft 445 kts 28°
2026-05-06 17:52 49.48217 -1.82432 34008 ft 445 kts 28°
2026-05-06 17:53 49.53604 -1.77816 34011 ft 445 kts 28°
2026-05-06 17:53 49.59158 -1.73671 34009 ft 443 kts 16°
2026-05-06 17:54 49.65195 -1.72090 34008 ft 440 kts
2026-05-06 17:54 49.71316 -1.71593 34004 ft 440 kts
2026-05-06 17:55 49.77454 -1.71059 34003 ft 441 kts
2026-05-06 17:55 49.83562 -1.70540 34004 ft 441 kts
2026-05-06 17:56 49.89691 -1.70023 34006 ft 441 kts
2026-05-06 17:56 49.95825 -1.69499 34007 ft 441 kts
2026-05-06 17:57 49.98890 -1.69162 33787 ft 442 kts
2026-05-06 17:57 50.01903 -1.68226 33539 ft 443 kts 15°
2026-05-06 17:57 50.04849 -1.66809 33291 ft 444 kts 16°
2026-05-06 17:57 50.07797 -1.65378 33041 ft 444 kts 16°
2026-05-06 17:58 50.10752 -1.63947 32791 ft 445 kts 16°
2026-05-06 17:58 50.13670 -1.62534 32544 ft 445 kts 16°
2026-05-06 17:58 50.16634 -1.61097 32283 ft 446 kts 16°
2026-05-06 17:58 50.19607 -1.59657 31427 ft 450 kts 16°
2026-05-06 17:59 50.22602 -1.58201 30534 ft 452 kts 16°
2026-05-06 17:59 50.25621 -1.56730 29547 ft 456 kts 16°
2026-05-06 17:59 50.28656 -1.55253 28557 ft 455 kts 16°
2026-05-06 17:59 50.31651 -1.53790 27992 ft 446 kts 16°
2026-05-06 18:00 50.34600 -1.52349 27394 ft 441 kts 15°
2026-05-06 18:00 50.37513 -1.50920 26790 ft 436 kts 16°
2026-05-06 18:00 50.40398 -1.49498 26189 ft 432 kts 16°
2026-05-06 18:00 50.43253 -1.48088 25589 ft 428 kts 16°
2026-05-06 18:01 50.46079 -1.46691 24997 ft 423 kts 16°
2026-05-06 18:01 50.48873 -1.45311 24417 ft 419 kts 15°
2026-05-06 18:01 50.51639 -1.43945 23841 ft 414 kts 15°
2026-05-06 18:01 50.54291 -1.42391 23277 ft 412 kts 23°
2026-05-06 18:02 50.56817 -1.40301 22718 ft 408 kts 27°
2026-05-06 18:02 50.59296 -1.38170 22167 ft 404 kts 27°
2026-05-06 18:02 50.61749 -1.36057 21632 ft 400 kts 27°
2026-05-06 18:02 50.64180 -1.33962 21103 ft 396 kts 27°
2026-05-06 18:03 50.66588 -1.31890 20594 ft 391 kts 27°
2026-05-06 18:03 50.68961 -1.29850 20101 ft 386 kts 27°
2026-05-06 18:03 50.71305 -1.27830 19626 ft 381 kts 27°
2026-05-06 18:03 50.73621 -1.25827 19160 ft 376 kts 27°
2026-05-06 18:04 50.75904 -1.23851 18697 ft 373 kts 27°
2026-05-06 18:04 50.78139 -1.21792 18237 ft 370 kts 30°
2026-05-06 18:04 50.80307 -1.19615 17788 ft 368 kts 32°
2026-05-06 18:04 50.82430 -1.17383 17310 ft 365 kts 32°
2026-05-06 18:05 50.84531 -1.15141 16841 ft 363 kts 32°
2026-05-06 18:05 50.86617 -1.12926 16366 ft 359 kts 32°
2026-05-06 18:05 50.88689 -1.10743 15875 ft 357 kts 32°
2026-05-06 18:05 50.90753 -1.08585 15383 ft 354 kts 32°
2026-05-06 18:06 50.92779 -1.06483 14903 ft 351 kts 31°
2026-05-06 18:06 50.94800 -1.04391 14395 ft 341 kts 31°
2026-05-06 18:06 50.96836 -1.02286 13914 ft 360 kts 31°
2026-05-06 18:06 50.98953 -1.00097 13378 ft 364 kts 32°
2026-05-06 18:07 51.00939 -0.97616 13036 ft 365 kts 42°
2026-05-06 18:07 51.02659 -0.94646 12980 ft 365 kts 47°
2026-05-06 18:07 51.04318 -0.91675 12208 ft 354 kts 47°
2026-05-06 18:07 51.05953 -0.88763 10967 ft 350 kts 46°
2026-05-06 18:08 51.07534 -0.85959 10463 ft 326 kts 47°
2026-05-06 18:08 51.08978 -0.83390 10195 ft 298 kts 46°
2026-05-06 18:08 51.10330 -0.80982 9600 ft 287 kts 46°
2026-05-06 18:08 51.11645 -0.78640 8886 ft 282 kts 47°
2026-05-06 18:09 51.12944 -0.76324 8239 ft 280 kts 46°
2026-05-06 18:09 51.14223 -0.74044 8033 ft 270 kts 47°
2026-05-06 18:09 51.15415 -0.71907 7990 ft 247 kts 47°
2026-05-06 18:09 51.16552 -0.69870 7997 ft 245 kts 47°
2026-05-06 18:10 51.17667 -0.67870 8007 ft 245 kts 47°
2026-05-06 18:10 51.18798 -0.65835 8012 ft 245 kts 46°
2026-05-06 18:10 51.19933 -0.63793 8013 ft 245 kts 46°
2026-05-06 18:10 51.21065 -0.61757 8004 ft 245 kts 46°
2026-05-06 18:11 51.22199 -0.59720 7998 ft 246 kts 46°
2026-05-06 18:11 51.22948 -0.58370 8002 ft 245 kts 46°
2026-05-06 18:11 51.24472 -0.55658 8002 ft 245 kts 42°
2026-05-06 18:11 51.25906 -0.54289 7928 ft 239 kts 13°
2026-05-06 18:12 51.27529 -0.54273 7594 ft 234 kts 342°
2026-05-06 18:12 51.28872 -0.55595 7206 ft 233 kts 312°
2026-05-06 18:12 51.29710 -0.57794 6989 ft 233 kts 297°
2026-05-06 18:12 51.30410 -0.60146 6996 ft 236 kts 296°
2026-05-06 18:13 51.31105 -0.62530 7002 ft 236 kts 296°
2026-05-06 18:13 51.31796 -0.64914 6977 ft 234 kts 296°
2026-05-06 18:13 51.32476 -0.67261 6594 ft 232 kts 296°
2026-05-06 18:13 51.33152 -0.69598 6145 ft 232 kts 296°
2026-05-06 18:14 51.33824 -0.71938 5737 ft 231 kts 296°
2026-05-06 18:14 51.34494 -0.74272 5350 ft 230 kts 296°
2026-05-06 18:14 51.35160 -0.76594 4944 ft 229 kts 296°
2026-05-06 18:14 51.35821 -0.78913 4522 ft 229 kts 296°
2026-05-06 18:15 51.36648 -0.81067 4109 ft 226 kts 318°
2026-05-06 18:15 51.38000 -0.82178 3804 ft 216 kts 352°
2026-05-06 18:15 51.39441 -0.82327 3656 ft 201 kts
2026-05-06 18:15 51.40821 -0.82338 3270 ft 197 kts
2026-05-06 18:16 51.42138 -0.82340 3142 ft 184 kts
2026-05-06 18:16 51.43402 -0.82346 3059 ft 180 kts
2026-05-06 18:16 51.44206 -0.82066 3012 ft 178 kts 27°
2026-05-06 18:16 51.45170 -0.80830 3013 ft 178 kts 44°
2026-05-06 18:17 51.46040 -0.79386 3016 ft 177 kts 45°
2026-05-06 18:17 51.46872 -0.77960 3011 ft 168 kts 46°
2026-05-06 18:17 51.47457 -0.76414 3002 ft 164 kts 68°
2026-05-06 18:17 51.47614 -0.74620 3006 ft 163 kts 87°
2026-05-06 18:18 51.47623 -0.72804 2949 ft 163 kts 86°
2026-05-06 18:18 51.47635 -0.70996 2784 ft 162 kts 86°
2026-05-06 18:18 51.47645 -0.69194 2585 ft 161 kts 86°
2026-05-06 18:18 51.47657 -0.67398 2373 ft 161 kts 86°
2026-05-06 18:19 51.47667 -0.65613 2165 ft 160 kts 87°
2026-05-06 18:19 51.47678 -0.63822 1954 ft 160 kts 87°
2026-05-06 18:19 51.47689 -0.62039 1738 ft 160 kts 87°
2026-05-06 18:19 51.47693 -0.60254 1541 ft 160 kts 87°
2026-05-06 18:20 51.47701 -0.58478 1319 ft 159 kts 88°
2026-05-06 18:20 51.47711 -0.56702 1121 ft 159 kts 88°
2026-05-06 18:20 51.47717 -0.54994 887 ft 147 kts 87°
2026-05-06 18:20 51.47727 -0.53380 701 ft 143 kts 87°
2026-05-06 18:21 51.47735 -0.51797 523 ft 141 kts 88°
2026-05-06 18:21 51.47741 -0.50219 351 ft 143 kts 88°
2026-05-06 18:21 51.47751 -0.48603 152 ft 145 kts 88°
2026-05-06 18:21 51.47761 -0.47082 87 ft 114 kts 89°
2026-05-06 18:22 51.47755 -0.46286 89 ft 29 kts 90°
2026-05-06 18:22 51.47673 -0.46118 90 ft 19 kts 148°
2026-05-06 18:22 51.47593 -0.46090 87 ft 6 kts 233°
2026-05-06 18:22 51.47594 -0.46159 86 ft 7 kts 274°
2026-05-06 18:23 51.47595 -0.46288 88 ft 18 kts 270°
2026-05-06 18:23 51.47595 -0.46520 86 ft 22 kts 270°
2026-05-06 18:23 51.47596 -0.46771 86 ft 23 kts 269°
2026-05-06 18:23 51.47584 -0.47033 90 ft 24 kts 269°
2026-05-06 18:24 51.47582 -0.47308 88 ft 25 kts 270°
2026-05-06 18:24 51.47581 -0.47593 86 ft 26 kts 270°
2026-05-06 18:24 51.47581 -0.47893 87 ft 27 kts 269°
2026-05-06 18:24 51.47579 -0.48197 89 ft 19 kts 270°
2026-05-06 18:25 51.47579 -0.48378 86 ft 16 kts 269°
2026-05-06 18:25 51.47522 -0.48470 86 ft 13 kts 164°
2026-05-06 18:25 51.47431 -0.48470 86 ft 14 kts 185°
2026-05-06 18:25 51.47329 -0.48476 87 ft 15 kts 179°
2026-05-06 18:26 51.47236 -0.48486 89 ft 8 kts 224°
2026-05-06 18:26 51.47233 -0.48567 86 ft 6 kts 269°
2026-05-06 18:26 51.47233 -0.48580 87 ft 0 kts 269°